Regional Weather Roundup
Issued by NWS

Home | Current Version | Previous Version | Text Only | Print | Product List | Glossary On
Versions: 1 2 3 4 5 6 7 8 9 10 11 12 13 14 15 16 17 18 19 20 21 22 23 24 25 26 27 28 29 30 31 32 33 34 35 36 37 38 39 40 41 42 43 44 45 46 47 48 49 50
000
ASUS43 KLSX 270310
RWRMO

WEATHER SUMMARY FOR MISSOURI
NATIONAL WEATHER SERVICE SPRINGFIELD MO
900 PM CST SUN FEB 26 2017

NOTE: "FAIR" INDICATES FEW OR NO CLOUDS BELOW 12,000 FEET WITH NO
       SIGNIFICANT WEATHER AND/OR OBSTRUCTIONS TO VISIBILITY.
       CURRENT SKY AND/OR WEATHER CONDITIONS ARE NOT AVAILABLE FOR
       CHILLICOTHE AND FARMINGTON.

MOZ001>031-035>038-043-044-053-054-270400-
...NORTHERN AND WESTERN MISSOURI...

CITY           SKY/WX    TMP DP  RH WIND       PRES   REMARKS
KANSAS CTY INT FAIR      38  33  82 S12       30.02R
KANSAS C DTWN  FAIR      42  36  79 S12       30.04R
LEE`S SUMMIT   FAIR      38  35  89 S9        30.04R
ST JOSEPH      FAIR      38  28  67 S9        30.01R
CHILLICOTHE      N/A     40  32  73 S9        30.04R
KIRKSVILLE     FAIR      36  24  62 S9        30.04R WCI  29

$$
MOZ066>068-077>081-088>096-101>105-270400-
...SOUTHWEST MISSOURI...

CITY           SKY/WX    TMP DP  RH WIND       PRES   REMARKS
SPRINGFIELD    CLOUDY    45  27  49 SE15      30.02R
JOPLIN         CLOUDY    40  34  79 NE3       30.02R
BRANSON        CLOUDY    45  27  49 E6        30.04R

$$
MOZ032>034-039>042-045>050-055>058-069>072-270400-
...CENTRAL MISSOURI...

CITY           SKY/WX    TMP DP  RH WIND       PRES   REMARKS
COLUMBIA       CLOUDY    38  36  92 SE7       30.08R
JEFFERSON CITY CLOUDY    39  36  89 SE6       30.10R
ROLLA          CLOUDY    37  35  92 SE3       30.07R
SEDALIA        CLOUDY    40  36  86 S9        30.07R
WHITEMAN AFB   CLOUDY    39  39 100 S7        30.05R
WARRENSBURG    CLOUDY    37  34  87 SE6       30.05S
OSAGE BEACH    CLOUDY    38  37  97 E6        30.08R

$$
MOZ051-052-059>065-270400-
...EAST CENTRAL MISSOURI...

CITY           SKY/WX    TMP DP  RH WIND       PRES   REMARKS
ST LOUIS INTL  CLOUDY    43  33  68 SW7       30.13R
SPIRIT OF STL  CLOUDY    41  35  79 VRB5      30.13R
ST CHARLES     CLOUDY    41  36  82 S12       30.12R

$$
MOZ072>076-082>087-097>100-106>115-270400-
...SOUTH CENTRAL AND SOUTHEAST MISSOURI...

CITY           SKY/WX    TMP DP  RH WIND       PRES   REMARKS
CAPE GIRARDEAU CLOUDY    44  32  62 S6        30.13R
FARMINGTON     CLOUDY    43  30  60 CALM      30.11S
POPLAR BLUFF   CLOUDY    46  37  71 CALM      30.12R
WEST PLAINS    CLOUDY    46  24  42 SE7       30.08R

$$




USA.gov is the U.S. government's official web portal to all federal, state and local government web resources and services.